This is the latest recevied weather packets stored in our database for station/object LX0WX-13. If no packets are shown the sender has not sent any weather packets the latest 1 day(s).
| Time | Temp. | Humidity | Pressure | Rain* | Wind** | Luminosity | Snow |
|---|---|---|---|---|---|---|---|
| 1777946154 | 10° C | 94% | 1006.9 hPa | 0 mm | 0.89 m/s, 180° | - | - |
| 1777945854 | 10° C | 94% | 1007 hPa | 0 mm | 0 m/s | - | - |
| 1777945554 | 10° C | 94% | 1006.9 hPa | 0 mm | 0.89 m/s, 180° | - | - |
| 1777945254 | 10° C | 94% | 1006.9 hPa | 0 mm | 0.45 m/s, 180° | - | - |
| 1777944954 | 10° C | 94% | 1007 hPa | 0 mm | 0 m/s | - | - |
| 1777944654 | 10° C | 94% | 1007 hPa | 0 mm | 0 m/s | - | - |
| 1777944354 | 10° C | 94% | 1007.2 hPa | 0 mm | 1.79 m/s, 180° | - | - |
| 1777944054 | 10° C | 94% | 1007.2 hPa | 0 mm | 1.34 m/s, 180° | - | - |
| 1777943754 | 9.44° C | 94% | 1007.2 hPa | 0 mm | 0.89 m/s, 180° | - | - |
| 1777943454 | 9.44° C | 94% | 1007.4 hPa | 0 mm | 0 m/s | - | - |
| 1777943154 | 10° C | 94% | 1007.2 hPa | 0 mm | 0.45 m/s, 180° | - | - |
| 1777942854 | 9.44° C | 94% | 1007.2 hPa | 0 mm | 1.79 m/s, 180° | - | - |
| 1777942554 | 9.44° C | 93% | 1007.3 hPa | 0 mm | 1.34 m/s, 180° | - | - |
| 1777942254 | 9.44° C | 93% | 1007.3 hPa | 0 mm | 1.34 m/s, 157° | - | - |
| 1777941954 | 9.44° C | 93% | 1007.3 hPa | 0 mm | 0.89 m/s, 180° | - | - |
| 1777941654 | 9.44° C | 93% | 1007.2 hPa | 0 mm | 0 m/s | - | - |
| 1777941354 | 9.44° C | 93% | 1007.3 hPa | 0 mm | 0 m/s | - | - |
| 1777941054 | 9.44° C | 93% | 1007.3 hPa | 0 mm | 0 m/s | - | - |
| 1777940754 | 9.44° C | 93% | 1007.4 hPa | 0 mm | 0.89 m/s, 180° | - | - |
| 1777940454 | 9.44° C | 93% | 1007.4 hPa | 0 mm | 0 m/s | - | - |
| 1777940155 | 10° C | 93% | 1007.6 hPa | 0 mm | 0 m/s | - | - |
| 1777939854 | 10° C | 93% | 1007.5 hPa | 0 mm | 0.89 m/s, 180° | - | - |
| 1777939554 | 10° C | 93% | 1007.5 hPa | 0 mm | 1.34 m/s, 180° | - | - |
| 1777939254 | 10° C | 93% | 1007.7 hPa | 0 mm | 0.89 m/s, 180° | - | - |
| 1777938954 | 10° C | 92% | 1007.6 hPa | 0 mm | 0.89 m/s, 157° | - | - |
* Rain latest hour (hover to see other rain measurements)
** Current wind speed in m/s (hover to see current wind gust speed)